Regional Weather Roundup
Issued by NWS

Home | Current Version | Previous Version | Graphics & Text | Print | Product List | Glossary On
Versions: 1 2 3 4 5 6 7 8 9 10 11 12 13 14 15 16 17 18 19 20 21 22 23 24 25 26 27 28 29 30 31 32 33 34 35 36 37 38 39 40 41 42 43 44 45 46 47 48 49 50
000
ASUS43 KMKX 240310
RWRWI

WISCONSIN REGIONAL WEATHER ROUNDUP
NATIONAL WEATHER SERVICE MILWAUKEE/SULLIVAN WI
1000 PM CDT WED JUL 23 2014

NOTE: "FAIR" INDICATES FEW OR NO CLOUDS BELOW 12,000 FEET WITH NO
SIGNIFICANT WEATHER AND/OR OBSTRUCTIONS TO VISIBILITY.

WIZ001-002-006>008-014>016-023>028-240400-
NORTHWEST WISCONSIN

CITY           SKY/WX    TMP DP  RH WIND       PRES   REMARKS
SUPERIOR ARPT  CLEAR     57  54  90 NE6       30.19R
ASHLAND        CLEAR     55  53  93 CALM      30.19S
HAYWARD        CLEAR     61  57  87 CALM      30.19S
SIREN          CLEAR     60  56  87 CALM      30.18S
RICE LAKE      CLEAR     64  55  72 CALM      30.19S
LADYSMITH      CLEAR     61  55  81 CALM      30.20S
EAU CLAIRE     CLEAR     65  57  75 NE5       30.16S
MENOMONIE      CLEAR     66  59  77 CALM      30.17S
NEW RICHMOND   CLEAR     64  59  83 NE3       30.17S
OSCEOLA        CLEAR     64  59  83 CALM      30.19S
$$

WIZ003>005-009-010-017-018-240400-
NORTH CENTRAL WISCONSIN

CITY           SKY/WX    TMP DP  RH WIND       PRES   REMARKS
WOODRUFF       CLEAR     57  48  72 CALM      30.21S
RHINELANDER    MOCLDY    57  53  86 CALM      30.21R
EAGLE RIVER    CLEAR     52  51  95 CALM      30.20S
LAND O LAKES   CLEAR     51  50  96 CALM      30.21S
PHILLIPS       CLEAR     56  51  84 CALM      30.20S
TOMAHAWK       MOCLDY    53  51  94 CALM      30.20R
MEDFORD        CLEAR     56  55  95 CALM      30.19S
MERRILL        CLEAR     58  55  89 CALM      30.19S
$$

WIZ029-030-035-036-043>047-240400-
CENTRAL WISCONSIN

CITY           SKY/WX    TMP DP  RH WIND       PRES   REMARKS
WAUSAU         CLEAR     66  54  65 N5        30.17R
MOSINEE        PTCLDY    64  54  68 CALM      30.19R
MARSHFIELD     MOCLDY    66  57  72 N3        30.17S
STEVENS POINT  CLOUDY    62  54  73 CALM      30.18S
WAUPACA        PTCLDY    63  56  80 CALM      30.17S
WAUTOMA        PTCLDY    63  55  75 CALM      30.17R
WISC RAPIDS    PTCLDY    63  55  75 CALM      30.18R
CAMP DOUGLAS   PTCLDY    59  59 100 W2        30.15S
$$

WIZ011>013-019>022-031-037>040-048>050-240400-
NORTHEAST WISCONSIN

CITY           SKY/WX    TMP DP  RH WIND       PRES   REMARKS
ANTIGO         CLEAR     57  54  90 CALM      30.20R
STURGEON BAY   CLEAR     61  46  59 E5        30.18R
GREEN BAY      CLEAR     62  49  62 E7        30.17S
MANITOWOC      CLEAR     58  51  78 CALM      30.18R
APPLETON       PTCLDY    64  48  55 E7        30.18R
CLINTONVILLE   MOCLDY    61  52  72 CALM      30.18R
OSHKOSH        CLEAR     61  53  75 SE5       30.17R
$$

WIZ032>034-041-042-053>061-240400-
SOUTHWEST WISCONSIN

CITY           SKY/WX    TMP DP  RH WIND       PRES   REMARKS
LA CROSSE      PTCLDY    71  59  65 NW3       30.14S
SPARTA         CLEAR     61  57  86 CALM      30.16S
VIROQUA        FAIR      63  59  87 CALM      30.17S
BOSCOBEL       CLEAR     66  60  81 CALM      30.14S
PRAIRIE DU CHI CLEAR     66  58  76 CALM      30.14S
PLATTEVILLE    FAIR      66  57  73 N3        30.16S
$$

WIZ056-057-062-063-064-067-068-240400-
SOUTH CENTRAL WISCONSIN

CITY           SKY/WX    TMP DP  RH WIND       PRES   REMARKS
BARABOO/DELLS  MOCLDY    65  56  74 CALM      30.16R
LONE ROCK      PTCLDY    69  61  75 CALM      30.15R
WATERTOWN      CLEAR     59  53  80 E5        30.17R
MADISON        CLEAR     65  56  72 SE10      30.16R
MIDDLETON      FAIR      68  55  64 SE8       30.17R
MONROE         MOCLDY    63  57  82 E7        30.16R
JANESVILLE     PTCLDY    61  50  67 E5        30.17R
$$

WIZ051-052-058>065-066-070>072-240400-
SOUTHEAST WISCONSIN

CITY           SKY/WX    TMP DP  RH WIND       PRES   REMARKS
MILWAUKEE      PTCLDY    59  51  75 N7        30.17R
WAUKESHA       CLEAR     55  46  71 CALM      30.19S
MILWAUKEE/TIMM CLEAR     59  48  67 CALM      30.18S
RACINE         CLEAR     58  53  84 N7        30.18R
BURLINGTON     CLEAR     54  50  87 CALM      30.17S
KENOSHA        CLEAR     58  53  84 N6        30.17R
FOND DU LAC    CLEAR     59  50  72 S3        30.18S
SHEBOYGAN      CLEAR     54  50  86 CALM      30.18R
WEST BEND      CLEAR     57  46  67 CALM      30.18S
JUNEAU         CLEAR     59  50  73 E6        30.19S
$$

LSZ147-162-240400-
LAKE SUPERIOR

STATION/POSITION TIME  TEMP    WIND        PRES    WAVE
                       AIR SEA DIR/SP/G            HT/PER
                 (UTC) (F)     (DEG/KT/KT) (MB)    (FT/S)
$$

LMZ867-665-643>646-240400-
LAKE MICHIGAN

STATION/POSITION TIME  TEMP    WIND        PRES    WAVE
                       AIR SEA DIR/SP/G            HT/PER
                 (UTC) (F)     (DEG/KT/KT) (MB)    (FT/S)
$$

TC  - TEMPERATURE IN CELSIUS
VSB - VISIBILITY IN STATUTE MILES
WCI - WIND CHILL INDEX
HX  - HEAT INDEX



USA.gov is the U.S. government's official web portal to all federal, state and local government web resources and services.